Weather in Saburovka

Russia / Voronezh Oblast     51°34′56″N   40°22′18″E
temp.,
°C
wind,
m/s
gust,
m/s
humid.,
%
clouds,
%
prec.,
mm/h
press.,
hPa
HPBL,
m
15 may, sat
sat1500:00+17se4108692 0.0 1011160
03:00+16sse489392 0.0 1011147
06:00+17sse3693100 0.0 1011186
09:00+18ssw61186100 0.7 1014568
12:00+23ssw336245 0.7 1013901
15:00+24sw565010 0.7 10131669
18:00+22wsw36605 0.0 1013267
21:00+17w22720 0.0 101411
16 may, sun
sun1600:00+15ne007898 0.0 101411
03:00+15e1179100 0.0 101511
06:00+16e12792 0.0 101547
09:00+21e236212 0.0 1015485
12:00+25ene335063 0.0 10141230
15:00+26ene335438 0.1 10131492
18:00+24ne2371100 1.6 1013108
21:00+18ese3375100 1.7 101326
17 may, mon
mon1700:00+16e467671 0.0 101381
03:00+15e497228 0.0 1012141
06:00+16ese487395 0.0 1012133
09:00+22ese6125334 0.0 1012443
12:00+26ese812445 0.0 10121019
15:00+26ese8135120 0.0 10101434
18:00+24ese613595 0.0 1009514
21:00+20ese61661100 0.0 1010356
18 may, tue
tue1800:00+18se615554 0.0 1009293
03:00+15se4135979 0.0 1009222
06:00+15se4126729 0.0 1009256
09:00+20sse586278 0.0 1009506
12:00+24sse575195 0.0 10081245
15:00+25s58495 0.0 10081997
18:00+22sw486798 0.0 1008295
21:00+19sw347498 0.1 100877
19 may, wed
wed1900:00+16s338596 0.1 100935
03:00+15sse378896 0.1 1008123
06:00+15s4108694 0.0 1007308
09:00+19s7107494 0.0 10071091
12:00+18ssw7117457 0.7 10081155
15:00+19sw9126898 2.0 10081480
18:00+16wsw61068100 0.2 1010977
21:00+12sw388358 0.2 1012212